Tracking 19212 objects as of 16-Jul-2018
HD Live streaming from Space Station
objects crossing your sky now

STRV 1A

Track STRV 1A now!
10-day predictions
STRV 1A is classified as:


NORAD ID: 23125
Int'l Code: 1994-034B
Perigee: 228.4 km
Apogee: 26,114.0 km
Inclination: 7.3 °
Period: 453.1 minutes
Semi major axis: 19542 km
RCS: 0.2699 m2 (medium)
Launch date: June 17, 1994
Source: United Kingdom (UK)
Launch site: FRENCH GUIANA (FRGUI)
aabbcc
Your satellite tracking list
Your tracking list is empty




NASA's NSSDC Master Catalog

Two Line Element Set (TLE):
1 23125U 94034B   18196.27814373 +.00007111 +00000-0 +61925-3 0  9999
2 23125 007.2621 317.6679 6622991 135.1759 302.9744 03.17791831239078
Source of the keplerian elements: AFSPC